Weather History for Danville, VA

Change the Weather History Date:

Saturday, February 23, 2013

  Actual Average Record
Temperature  
Mean Temperature 41 °F 43 °F  
Max Temperature 47 °F 52 °F 73 °F (1980)
Min Temperature 35 °F 33 °F 10 °F (1963)
Degree Days  
Heating Degree Days 24 22  
Month to date heating degree days 579 566  
Since 1 July heating degree days 2684 2894  
Cooling Degree Days 0 0  
Month to date cooling degree days 0 0  
Year to date cooling degree days 2 0  
Moisture  
Dew Point 36 °F    
Average Humidity 85    
Maximum Humidity 93    
Minimum Humidity 76    
Precipitation  
Precipitation 0.16 in 0.09 in 1.24 in (1961)
Month to date precipitation 1.75 2.52  
Year to date precipitation 8.91 5.94  
Snow  
Snow 0.00 in - - ()
Month to date snowfall 0.6  
Since 1 July snowfall 1.7  
Snow Depth 0.00 in    
Sea Level Pressure  
Sea Level Pressure 29.98 in    
Wind  
Wind Speed 3 mph (NNE)    
Max Wind Speed 12 mph    
Max Gust Speed 14 mph    
Visibility 8 miles    
Events Rain    
T = Trace of Precipitation, MM = Missing Value Source: NWS Daily Summary

Daily Weather History Graph

Daily Weather History Graph

Search for Another Location

Airport:

Trip Planner

Search our weather history database for the weather conditions in past years. The results will help you decide how hot, cold, wet, or windy it might be!

Date:

Astronomy

Feb. 23, 2013 Rise Set
Actual Time 6:55 AM EST 6:06 PM EST
Civil Twilight 6:29 AM EST 6:32 PM EST
Nautical Twilight 5:59 AM EST 7:02 PM EST
Astronomical Twilight 5:29 AM EST 7:32 PM EST
Moon 4:16 PM EST (2/23) 5:14 AM EST (2/23)
Length of Visible Light 12h 03m
Length of Day
11h 10m
Waxing Gibbous, 95% of the Moon is Illuminated
Feb 23
Waxing Gibbous
Feb 25
Full
Mar 4
Last Quarter
Mar 11
New
Mar 19
First Quarter

Hourly Weather History & Observations

Time (EST) Temp. Windchill Dew Point Humidity Pressure Visibility Wind Dir Wind Speed Gust Speed Precip Events Conditions
12:53 AM 35.1 °F 32.2 °F 33.1 °F 92% 30.12 in 4.0 mi NE 3.5 mph - N/A   Overcast
1:42 AM 35.6 °F 30.7 °F 33.8 °F 93% 30.15 in 2.5 mi North 5.8 mph - N/A   Overcast
1:53 AM 36.0 °F 31.1 °F 33.1 °F 89% 30.14 in 2.5 mi NNE 5.8 mph - N/A   Overcast
2:03 AM 35.6 °F 31.7 °F 33.8 °F 93% 30.14 in 3.0 mi NNE 4.6 mph - N/A   Overcast
2:24 AM 35.6 °F - 33.8 °F 93% 30.12 in 4.0 mi Calm Calm - N/A   Overcast
2:53 AM 36.0 °F 31.1 °F 33.1 °F 89% 30.07 in 7.0 mi ENE 5.8 mph - N/A   Overcast
3:53 AM 36.0 °F 31.1 °F 33.1 °F 89% 30.05 in 10.0 mi North 5.8 mph - 0.00 in   Overcast
4:53 AM 36.0 °F 29.6 °F 32.0 °F 86% 30.04 in 9.0 mi NNE 8.1 mph - N/A   Overcast
5:22 AM 35.6 °F - 33.8 °F 93% 30.06 in 10.0 mi Calm Calm - 0.00 in   Overcast
5:53 AM 36.0 °F 32.1 °F 33.1 °F 89% 30.08 in 9.0 mi NNW 4.6 mph - 0.00 in   Overcast
6:53 AM 35.1 °F 29.3 °F 32.0 °F 89% 30.03 in 6.0 mi NE 6.9 mph - 0.05 in Rain Light Rain
7:02 AM 35.6 °F 29.2 °F 32.0 °F 87% 30.03 in 6.0 mi NE 8.1 mph - 0.01 in Rain Light Rain
7:51 AM 35.6 °F 31.7 °F 32.0 °F 87% 30.00 in 7.0 mi NNE 4.6 mph - 0.06 in   Overcast
7:53 AM 35.1 °F 30.1 °F 32.0 °F 89% 30.00 in 7.0 mi NNE 5.8 mph - 0.06 in   Overcast
8:53 AM 36.0 °F - 33.1 °F 89% 30.01 in 5.0 mi Calm Calm - 0.02 in Rain Light Rain
9:53 AM 37.0 °F 31.6 °F 34.0 °F 89% 29.96 in 7.0 mi NE 6.9 mph - 0.03 in   Overcast
10:53 AM 37.9 °F - 35.1 °F 89% 29.99 in 8.0 mi Calm Calm - 0.00 in   Overcast
11:53 AM 39.0 °F - 36.0 °F 89% 29.96 in 7.0 mi Calm Calm - 0.00 in   Overcast
12:53 PM 39.9 °F 37.8 °F 37.0 °F 89% 29.95 in 7.0 mi NNW 3.5 mph - N/A   Overcast
1:53 PM 43.0 °F 40.3 °F 37.9 °F 82% 29.92 in 9.0 mi North 4.6 mph - N/A   Overcast
2:53 PM 44.1 °F - 39.0 °F 82% 29.90 in 10.0 mi Calm Calm - N/A   Overcast
3:08 PM 44.6 °F - 39.2 °F 81% 29.90 in 10.0 mi Calm Calm - N/A   Overcast
3:53 PM 45.0 °F - 39.0 °F 80% 29.87 in 10.0 mi Calm Calm - N/A   Overcast
4:53 PM 46.9 °F - 39.9 °F 77% 29.87 in 10.0 mi WSW 4.6 mph - N/A   Overcast
5:53 PM 46.0 °F - 39.9 °F 79% 29.85 in 10.0 mi Calm Calm - N/A   Mostly Cloudy
6:53 PM 43.0 °F - 39.9 °F 89% 29.84 in 10.0 mi Calm Calm - N/A   Clear
7:53 PM 41.0 °F - 39.0 °F 93% 29.83 in 10.0 mi Calm Calm - N/A   Clear
8:53 PM 42.1 °F - 39.9 °F 92% 29.83 in 10.0 mi Calm Calm - N/A   Mostly Cloudy
10:53 PM 43.0 °F 41.3 °F 39.9 °F 89% 29.83 in 10.0 mi SSW 3.5 mph - N/A   Overcast
11:53 PM 43.0 °F - 39.9 °F 89% 29.81 in 10.0 mi Calm Calm - N/A   Overcast